FW0246 Weather Reports


Display with metric or nautical units.
time (UTC)temp
F
wind
direction
speed
MPH
gust
MPH
rain 1hr
in
rain 24hr
in
rain mn
in
humidity
%
barometer
mb
20260507082705 52 279 1.0 3.0 0.00 0.00 0.00 82 1015.0
20260507082016 52 275 1.0 3.0 0.00 0.00 0.00 83 1015.0
20260507080905 51 275 1.0 4.0 0.00 0.00 0.00 83 1014.9
20260507080005 51 307 2.0 6.0 0.00 0.00 0.00 84 1014.9
20260507075405 51 282 1.0 6.0 0.00 0.00 0.00 84 1014.8
20260507074503 51 31 1.0 3.0 0.00 0.00 0.00 85 1014.8
20260507073605 50 36 2.0 4.0 0.00 0.00 0.00 84 1014.7
20260507072703 50 56 1.0 4.0 0.00 0.00 0.00 87 1014.5
20260507071805 49 63 1.0 5.0 0.00 0.00 0.00 86 1014.4
20260507070904 49 266 1.0 3.0 0.00 0.00 0.00 87 1014.5
20260507070010 49 336 1.0 4.0 0.00 0.00 0.00 87 1014.4
20260507065403 49 10 1.0 3.0 0.00 0.00 0.00 89 1014.4
20260507064717 48 48 1.0 2.0 0.00 0.00 0.00 89 1014.4
20260507063817 48 28 2.0 4.0 0.00 0.00 0.00 88 1014.4
20260507062703 48 47 1.0 5.0 0.00 0.00 0.00 89 1014.2
20260507061803 48 33 2.0 3.0 0.00 0.01 0.00 89 1014.1
20260507061119 48 21 2.0 6.0 0.00 0.01 0.00 89 1014.1
20260507055403 48 0 0.0 0.0 0.00 0.01 0.00 92 1014.0
20260507054503 48 0 0.0 0.0 0.00 0.01 0.00 92 1013.9
20260507053603 47 0 0.0 0.0 0.00 0.01 0.00 93 1013.8
20260507052703 47 0 0.0 0.0 0.00 0.01 0.00 93 1013.7
20260507042703 47 0 0.0 0.0 0.00 0.01 0.00 93 1013.0
20260507040903 46 0 0.0 0.0 0.00 0.01 0.00 93 1012.9
20260507030003 47 239 1.0 3.0 0.00 0.02 0.00 93 1012.4
20260507022703 47 279 0.0 2.0 0.00 0.02 0.00 93 1012.3
20260507022018 47 308 0.0 3.0 0.00 0.02 0.00 93 1012.2
20260507010003 47 51 0.0 1.0 0.00 0.04 0.00 94 1012.0
20260507004719 47 51 0.0 1.0 0.00 0.04 0.00 94 1011.9
20260507003603 47 0 0.0 0.0 0.00 0.04 0.00 94 1011.9
20260507002703 47 51 0.0 1.0 0.00 0.04 0.00 94 1011.9
20260507001803 47 51 0.0 1.0 0.00 0.06 0.00 93 1011.8
20260507000903 47 0 0.0 0.0 0.00 0.06 0.00 93 1011.8
20260507000003 47 51 0.0 1.0 0.00 0.06 0.00 93 1011.7
20260506235403 47 51 0.0 1.0 0.00 0.06 0.00 92 1011.7
20260506234719 47 51 0.0 2.0 0.00 0.06 0.00 92 1011.7
20260506233603 47 51 0.0 1.0 0.00 0.06 0.00 92 1011.7
20260506232703 48 0 0.0 0.0 0.00 0.06 0.00 92 1011.7
20260506231803 48 51 0.0 1.0 0.00 0.06 0.00 92 1011.7
20260506231116 48 51 0.0 1.0 0.00 0.06 0.00 92 1011.7
20260506230003 48 0 0.0 0.0 0.00 0.06 0.00 92 1011.8
20260506225619 48 0 0.0 0.0 0.00 0.06 0.00 92 1011.8
20260506224504 48 0 0.0 0.0 0.00 0.06 0.00 92 1011.7
20260506223603 48 0 0.0 0.0 0.00 0.06 0.00 91 1011.7
20260506222703 48 51 0.0 1.0 0.00 0.06 0.00 91 1011.7
20260506221803 48 51 0.0 1.0 0.00 0.06 0.00 92 1011.6
20260506220903 48 0 0.0 0.0 0.00 0.06 0.00 91 1011.5
20260506220003 48 51 0.0 1.0 0.00 0.08 0.00 91 1011.3
20260506215619 48 51 0.0 1.0 0.00 0.09 0.08 91 1011.2
20260506214503 48 51 0.0 1.0 0.00 0.09 0.08 90 1011.0
20260506213603 48 51 0.0 1.0 0.00 0.09 0.08 90 1010.9
20260506212703 48 51 0.0 1.0 0.00 0.09 0.08 90 1010.8
20260506211803 48 51 0.0 1.0 0.00 0.09 0.08 89 1010.7
20260506211116 48 51 0.0 3.0 0.00 0.10 0.08 89 1010.7
20260506210219 48 51 0.0 2.0 0.00 0.10 0.08 89 1010.7
20260506205618 48 51 0.0 1.0 0.00 0.10 0.08 89 1010.7
20260506204503 48 51 1.0 3.0 0.00 0.11 0.08 89 1010.7
20260506203817 48 56 1.0 4.0 0.00 0.12 0.08 89 1010.6
20260506202703 48 36 1.0 3.0 0.00 0.12 0.08 89 1010.5
20260506201803 48 35 1.0 3.0 0.00 0.12 0.08 90 1010.7
20260506200903 48 34 0.0 1.0 0.00 0.13 0.08 91 1010.7
20260506200219 49 0 0.0 0.0 0.00 0.13 0.08 90 1010.5
20260506195403 49 34 0.0 2.0 0.00 0.13 0.08 90 1010.5
20260506194503 49 34 0.0 2.0 0.00 0.13 0.08 89 1010.4
20260506193603 49 34 0.0 2.0 0.00 0.13 0.08 89 1010.2
20260506192704 49 34 0.0 1.0 0.00 0.13 0.08 88 1010.1
20260506192019 49 34 0.0 1.0 0.00 0.13 0.08 88 1009.9
20260506190903 49 33 1.0 3.0 0.00 0.14 0.08 87 1009.7
20260506190003 49 65 1.0 4.0 0.00 0.14 0.08 87 1009.6
20260506185403 49 86 1.0 4.0 0.00 0.14 0.08 87 1009.5
20260506184503 49 22 1.0 6.0 0.00 0.15 0.08 87 1009.3
20260506183604 49 49 1.0 6.0 0.00 0.15 0.08 86 1009.3
20260506182703 50 92 1.0 4.0 0.00 0.15 0.08 86 1009.1
20260506182019 50 68 2.0 7.0 0.00 0.15 0.08 86 1009.1
20260506180903 50 75 2.0 7.0 0.00 0.16 0.08 85 1008.8
20260506180004 50 64 2.0 5.0 0.00 0.16 0.08 85 1008.7
20260506175617 50 66 2.0 5.0 0.00 0.16 0.08 85 1008.8
20260506174503 50 52 1.0 3.0 0.00 0.16 0.08 84 1008.8
20260506173603 51 51 2.0 7.0 0.00 0.17 0.08 84 1008.8
20260506172920 51 65 2.0 4.0 0.00 0.17 0.08 84 1008.7
20260506171803 51 123 1.0 2.0 0.00 0.18 0.08 85 1008.8
20260506170903 51 163 1.0 5.0 0.00 0.19 0.08 84 1008.6
20260506170217 51 51 2.0 6.0 0.00 0.20 0.08 84 1008.6
20260506165403 52 77 2.0 6.0 0.00 0.20 0.08 84 1008.6
20260506164503 52 83 1.0 3.0 0.00 0.20 0.08 85 1008.6
20260506163603 52 97 1.0 4.0 0.00 0.20 0.08 85 1008.6
20260506162703 52 40 2.0 5.0 0.00 0.21 0.08 84 1008.6
20260506161804 52 358 3.0 8.0 0.00 0.21 0.08 83 1008.6
20260506160903 52 31 2.0 8.0 0.00 0.21 0.08 83 1008.5
20260506160003 53 25 1.0 5.0 0.00 0.21 0.08 85 1008.4
20260506155403 52 266 1.0 4.0 0.00 0.21 0.08 87 1008.4
20260506154504 52 62 2.0 8.0 0.00 0.21 0.08 87 1008.3
20260506153603 52 39 2.0 8.0 0.00 0.21 0.08 86 1008.4
20260506152919 52 4 1.0 7.0 0.00 0.21 0.08 86 1008.2
20260506151803 52 31 2.0 5.0 0.00 0.22 0.08 86 1008.2
20260506150903 52 44 2.0 10.0 0.00 0.22 0.08 86 1008.1
20260506150217 53 47 2.0 10.0 0.00 0.23 0.08 85 1008.0
20260506145403 53 50 1.0 5.0 0.00 0.23 0.08 86 1008.0
20260506144503 52 46 2.0 4.0 0.00 0.23 0.08 87 1008.1
20260506143603 53 39 2.0 8.0 0.00 0.24 0.08 86 1008.0
20260506142703 53 227 2.0 4.0 0.00 0.24 0.08 88 1008.0
20260506141803 53 240 1.0 4.0 0.00 0.24 0.08 88 1008.1
20260506140903 53 249 2.0 8.0 0.00 0.25 0.08 88 1008.1
20260506140004 53 258 2.0 9.0 0.00 0.27 0.08 88 1007.9
20260506135403 53 256 1.0 6.0 0.00 0.28 0.08 89 1008.0
20260506134504 53 257 2.0 5.0 0.00 0.28 0.08 89 1008.1
20260506133603 53 236 1.0 5.0 0.00 0.31 0.08 89 1008.0
20260506132703 53 234 2.0 8.0 0.00 0.32 0.08 88 1007.9
20260506132017 53 234 2.0 7.0 0.00 0.33 0.08 88 1007.8
20260506130904 53 238 1.0 4.0 0.00 0.34 0.08 89 1007.8
20260506130003 53 262 1.0 4.0 0.00 0.34 0.08 88 1007.8
20260506125403 53 243 2.0 5.0 0.00 0.35 0.08 88 1007.7
20260506124503 54 246 2.0 5.0 0.00 0.39 0.08 87 1007.6
20260506123603 54 242 1.0 5.0 0.00 0.43 0.08 88 1007.5
20260506122703 54 248 1.0 6.0 0.00 0.43 0.08 88 1007.5
20260506121803 54 274 1.0 4.0 0.00 0.43 0.08 88 1007.4
20260506120903 54 223 1.0 6.0 0.00 0.43 0.08 87 1007.3
20260506120003 54 99 1.0 4.0 0.00 0.43 0.08 88 1007.3
20260506115403 54 243 1.0 4.0 0.00 0.43 0.08 88 1007.2
20260506114503 54 263 1.0 6.0 0.00 0.43 0.08 89 1007.2
20260506113603 54 299 1.0 4.0 0.00 0.43 0.08 88 1007.2
20260506112703 53 220 1.0 4.0 0.00 0.43 0.08 88 1007.1
20260506111803 53 86 1.0 3.0 0.00 0.43 0.08 89 1007.2
20260506110903 53 80 0.0 2.0 0.00 0.43 0.08 90 1007.2
20260506110003 53 63 1.0 3.0 0.00 0.43 0.08 90 1007.0
20260506105403 53 37 2.0 4.0 0.00 0.43 0.08 89 1006.9
20260506104503 53 302 1.0 4.0 0.00 0.43 0.08 88 1007.0
20260506103603 53 287 1.0 6.0 0.00 0.43 0.08 88 1006.9
20260506102917 54 14 1.0 6.0 0.00 0.43 0.08 90 1006.9
20260506102016 53 57 2.0 9.0 0.00 0.43 0.08 91 1006.8
20260506100903 52 70 2.0 4.0 0.00 0.43 0.08 92 1006.7
20260506100003 52 331 1.0 4.0 0.00 0.43 0.08 92 1006.8
20260506095403 52 248 1.0 8.0 0.00 0.43 0.08 92 1006.8
20260506094503 52 235 2.0 5.0 0.00 0.43 0.08 92 1006.7
20260506093603 52 261 2.0 7.0 0.00 0.43 0.08 92 1006.6
20260506092703 52 277 1.0 5.0 0.00 0.43 0.08 92 1006.5
20260506091803 52 253 2.0 10.0 0.00 0.43 0.08 91 1006.4
20260506090903 53 217 2.0 7.0 0.00 0.43 0.08 91 1006.3
20260506090003 53 254 1.0 4.0 0.00 0.43 0.08 91 1006.1
20260506085403 54 274 2.0 7.0 0.00 0.43 0.08 93 1006.1
20260506084503 53 249 1.0 3.0 0.00 0.43 0.08 94 1006.0